Regional Weather Roundup
Issued by NWS Northern Indiana

Home | Current Version | Previous Version | Text Only | Print | Product List | Glossary Off
Versions: 1 2 3 4 5 6 7 8 9 10 11 12 13 14 15 16 17 18 19 20 21 22 23 24 25 26 27 28 29 30 31 32 33 34 35 36 37 38 39 40 41 42 43 44 45 46 47 48 49 50

000
ASUS43 KIWX 211901
RWRIWX

KIWX WEATHER ROUNDUP
NATIONAL WEATHER SERVICE NORTHERN INDIANA
300 PM EDT THU SEP 21 2017

NOTE: "FAIR" INDICATES FEW OR NO CLOUDS BELOW 12,000 FEET WITH NO
SIGNIFICANT WEATHER AND/OR OBSTRUCTIONS TO VISIBILITY.

* THESE STATIONS ARE NOT UNDER NWS QUALITY CONTROL. THEY ALSO MAY NOT
  REPORT WEATHER SUCH AS PRECIPITATION OR FOG.

INZ001>027-212000-
NORTHERN INDIANA

CITY           SKY/WX    TMP DP  RH WIND       PRES   REMARKS
GARY*          MOSUNNY   91  66  43 S8        30.02F
MICHIGAN CITY* SUNNY     90  72  55 SW6       30.03F HX  96
KNOX*          MOSUNNY   88  72  58 SW7       30.02F
SOUTH BEND     SUNNY     88  74  63 S7        30.04F HX  96
ELKHART*       MOSUNNY   90  73  58 S6        30.03F HX  98
GOSHEN         MOSUNNY   88  70  55 S6        30.04F
MONTICELLO*    SUNNY     89  71  53 S6        30.02F HX  95
WARSAW*        SUNNY     88  72  58 S5        30.05F
AUBURN*        MOSUNNY   88  66  48 CALM      30.06F
FORT WAYNE     MOSUNNY   87  69  54 S7        30.06F
PERU/GRISSOM   MOSUNNY   89  71  53 SW3       30.04F HX  95

$$
INZ028>050-212000-
CENTRAL INDIANA

CITY           SKY/WX    TMP DP  RH WIND       PRES   REMARKS
LAFAYETTE      CLOUDY    90  72  55 S6        30.02F HX  97
KOKOMO*        SUNNY     89  71  55 S7        30.06F HX  95
MUNCIE*        MOSUNNY   91  68  46 W7        30.07F HX  95
INDIANAPOLIS   MOSUNNY   90  69  50 S7        30.05F

$$
MIZ043>046-050>051-056>058-064>065-071>073-077>080-212000-
SOUTHWEST LOWER MICHIGAN

CITY           SKY/WX    TMP DP  RH WIND       PRES   REMARKS
BATTLE CREEK   MOSUNNY   90  69  50 SW8       30.05F
BENTON HARBOR  SUNNY     84  69  60 W7        30.03F
COLDWATER*     SUNNY     90  65  44 SW7       30.05F
HILLSDALE*     MOSUNNY   90  66  45 S6        30.07F
HOLLAND        SUNNY     88  70  55 SW6       30.04F
GRAND RAPIDS   PTSUNNY   93  69  45 NW7       30.02F HX  98
KALAMAZOO      SUNNY     92  68  45 VRB5      30.03F HX  96
STURGIS*       MOSUNNY   89  72  56 SW3       30.04S HX  96
THREE RIVERS*  FAIR      92  70  49 SW9       30.04F HX  97

$$
OHZ001>008-015>018-024>025-212000-
NORTHWEST OHIO

CITY           SKY/WX    TMP DP  RH WIND       PRES   REMARKS
DEFIANCE       MOSUNNY   89  69  51 S8        30.05F
FINDLAY        SUNNY     89  69  51 SE3       30.06F
TOLEDO EXPRESS MOSUNNY   91  72  53 CALM      30.05F HX  98
TOLEDO METCALF PTSUNNY   91  71  51 CALM      30.06F HX  97
LIMA           SUNNY     90  68  48 CALM      30.07F

$$
AND FOR LAKE MICHIGAN COASTAL AND OPEN LAKE BUOY OBSERVATIONS

STATION/POSITION TEMP    WIND        PRES    VSBY  WAVE
                 AIR SEA DIR/SP/G                  HT/PER
                 (F)     (DEG/KT/KT) (MB)    (MI)  (FT/S)
CALUMET HARBOR    89     150/  7/ 11 1015.7F
MICHIGAN CITY     86     190/  8/ 10   N/A
BURNS HARBOR      88     200/  7/ 10 1016.6F
SAINT JOSEPH      78      20/  6/  8 1017.6
SOUTH LAKE BUOY   73 72   60/  2/  4 1016.9          1/ 3
4 MI NW BRIDGMAN  74 72   60/  6/  6 1016.6S         1
MICHIGAN CITY     80 71  320/  6/  6   N/A           0

$$
&&




USA.gov is the U.S. government's official web portal to all federal, state and local government web resources and services.